[[{"header":{"parameterUnit":"m.s-1","parameterCategory":1,"la1":30.2992,"la2":30.254,"lo1":-89.0895,"lo2":-89.0443,"dy":0.0025,"dx":0.0025,"nx":19,"ny":19,"refTime":"2026-05-18T03:00:00:Z","depth":0,"parameterNumber":2,"parameterNumberName":"U-component_of_WINDS"},"data":[0,0,0,-5.0973,-5.0977,-5.1124,-5.1125,-5.1322,-5.1323,0,0,0,0,0,0,0,0,0,0,0,-5.0935,-5.0937,-5.0973,-5.0977,-5.1124,-5.1125,-5.1321,-5.1323,0,0,0,0,0,0,0,0,0,0,0,-5.0935,-5.0936,-5.0938,-5.0978,-5.1124,-5.1125,-5.1321,-5.1206,0,0,0,0,0,0,0,0,0,0,-5.1062,-5.1032,-5.0936,-5.0938,-5.0978,-5.1124,-5.1125,-5.1201,-5.1214,-5.1258,0,-5.13,0,-5.1315,-5.1337,-5.1338,0,0,0,-5.0972,-5.1022,-5.1056,-5.0939,-5.098,-5.1124,-5.1057,-5.1208,-5.1222,-5.1275,-5.1303,-5.131,-5.1318,-5.1338,-5.1339,-5.1614,-5.1615,0,0,-5.0964,-5.0965,-5.1047,-5.1066,-5.1045,-5.1052,-5.1061,-5.1216,-5.1246,-5.1304,-5.1315,-5.1322,-5.134,-5.1341,-5.1612,-5.1614,0,0,0,-5.0944,-5.0959,-5.099,-5.1058,-5.1084,-5.1056,-5.1067,-5.124,-5.125,-5.1317,-5.1324,-5.1341,-5.1344,-5.1611,-5.1613,-5.1685,0,0,0,-5.0939,-5.0947,-5.0987,-5.0988,-5.1082,-5.1164,-5.1087,-5.1239,-5.1256,-5.1323,-5.1341,-5.1346,-5.1609,-5.1612,-5.168,-5.1718,0,0,0,-5.0924,-5.0945,-5.0969,-5.0988,-5.1052,-5.1161,-5.118,-5.1243,-5.1261,-5.1338,-5.1346,-5.1608,-5.1611,-5.1675,-5.171,-5.1789,0,0,0,-5.0907,-5.1032,-5.097,-5.1112,-5.1051,-5.1206,-5.1179,-5.1295,-5.137,-5.1342,-5.1609,-5.1613,-5.1673,-5.1706,-5.1784,-5.1853,-5.1883,0,0,-5.1064,-5.1051,-5.1134,-5.1083,-5.125,-5.1184,-5.1361,-5.1429,-5.1436,-5.1554,-5.1561,-5.1682,-5.171,-5.1788,-5.2054,-5.2078,0,0,0,-5.1184,-5.1243,-5.1288,-5.1359,-5.1415,-5.1465,-5.1506,-5.1531,-5.1631,-5.1497,-5.1733,-5.175,-5.1795,-5.1828,-5.1848,-5.1886,-5.1629,-5.1628,-5.1628,-5.1405,-5.1407,-5.1545,-5.1565,-5.1635,-5.1676,-5.1732,-5.1773,-5.1756,-5.1812,-5.1845,-5.2007,-5.2046,-5.2061,-5.21,-5.1885,-5.1885,-5.1886,-5.1886,-5.1632,-5.1716,-5.1691,-5.1814,-5.1816,-5.192,-5.1965,-5.1949,-5.2045,-5.1982,-5.2022,-5.195,-5.2087,-5.2121,-5.1891,-5.189,-5.189,-5.1889,-5.1889,-5.1775,-5.1815,-5.1845,-5.1947,-5.2026,-5.2043,-5.2137,-5.2136,-5.2136,-5.2176,-5.221,-5.2209,-5.2205,-5.2193,-5.2194,-5.2194,-5.2195,-5.2195,-5.2195,-5.191,-5.1941,-5.2019,-5.2089,-5.2134,-5.2193,-5.2237,-5.2281,-5.233,-5.2321,-5.2322,-5.2297,-5.2101,-5.2049,-5.2204,-5.2202,-5.2201,-5.22,-5.22,-5.2135,-5.2084,-5.2205,-5.2251,-5.2332,-5.2409,-5.2408,-5.2498,-5.2535,-5.258,-5.2548,-5.2404,-5.2389,-5.2374,-5.2331,-5.2549,-5.2549,-5.2549,-5.2549,-5.2252,-5.2246,-5.2369,-5.2441,-5.2512,-5.2523,-5.2659,-5.2694,-5.2722,-5.2745,-5.2714,-5.2659,-5.2643,-5.2637,-5.2616,-5.2576,-5.2851,-5.2852,-5.2852,-5.239,-5.239,-5.2505,-5.2533,-5.2596,-5.265,-5.2777,-5.286,-5.2882,-5.2864,-5.2762,-5.2749,-5.266,-5.2631,-5.2607,-5.2574,-5.25,0,0]},{"header":{"parameterUnit":"m.s-1","parameterCategory":1,"la1":30.2992,"la2":30.254,"lo1":-89.0895,"lo2":-89.0443,"dy":0.0025,"dx":0.0025,"nx":19,"ny":19,"refTime":"2026-05-18T03:00:00:Z","depth":0,"parameterNumber":3,"parameterNumberName":"V-component_of_WINDS"},"data":[0,0,0,3.5592,3.5593,3.5628,3.5628,3.5685,3.5685,0,0,0,0,0,0,0,0,0,0,0,3.5589,3.5589,3.5592,3.5593,3.5628,3.5628,3.5685,3.5685,0,0,0,0,0,0,0,0,0,0,0,3.5588,3.5589,3.559,3.5593,3.5628,3.5628,3.5685,3.5654,0,0,0,0,0,0,0,0,0,0,3.5617,3.5622,3.5589,3.559,3.5593,3.5628,3.5628,3.5652,3.5655,3.5674,0,3.5693,0,3.569,3.569,3.569,0,0,0,3.5587,3.5619,3.5622,3.559,3.5593,3.5628,3.561,3.5654,3.5658,3.5679,3.5694,3.5695,3.5691,3.569,3.5691,3.5819,3.582,0,0,3.5585,3.5599,3.5619,3.5625,3.5621,3.5609,3.5612,3.5656,3.5673,3.5694,3.5696,3.5692,3.5691,3.5691,3.5818,3.5819,0,0,0,3.5583,3.5598,3.5599,3.5623,3.5629,3.561,3.5613,3.5671,3.567,3.5697,3.5693,3.5691,3.5692,3.5817,3.5818,3.5876,0,0,0,3.5582,3.5597,3.5599,3.5608,3.5628,3.565,3.5627,3.5667,3.5672,3.5693,3.5691,3.5693,3.5816,3.5818,3.5872,3.59,0,0,0,3.5584,3.5597,3.5605,3.5608,3.5624,3.5649,3.5651,3.5668,3.5669,3.569,3.5693,3.5815,3.5817,3.5869,3.5895,3.5938,0,0,0,3.559,3.5655,3.5606,3.5677,3.5624,3.5685,3.565,3.5695,3.572,3.5692,3.5816,3.5818,3.5868,3.5891,3.5935,3.5977,3.5996,0,0,3.568,3.5666,3.5707,3.5664,3.5737,3.5678,3.576,3.5768,3.5757,3.5799,3.5802,3.5873,3.5894,3.5937,3.6099,3.6114,0,0,0,3.574,3.5769,3.5786,3.581,3.582,3.5829,3.5824,3.5828,3.5863,3.5782,3.5901,3.5913,3.5937,3.5957,3.597,3.599,3.5828,3.5828,3.5828,3.5886,3.5869,3.5936,3.5923,3.5948,3.5943,3.5961,3.5964,3.5939,3.5967,3.5979,3.6079,3.6103,3.6112,3.6134,3.6001,3.6001,3.6001,3.6001,3.6016,3.6055,3.6021,3.6073,3.6055,3.6098,3.6096,3.6076,3.6113,3.6069,3.6089,3.6042,3.613,3.6147,3.6005,3.6005,3.6004,3.6004,3.6003,3.611,3.6125,3.6129,3.6164,3.6193,3.6178,3.6215,3.6197,3.6179,3.62,3.6211,3.621,3.6206,3.6207,3.6207,3.6207,3.6208,3.6208,3.6208,3.6205,3.6208,3.6242,3.6258,3.6272,3.6288,3.6284,3.6297,3.6307,3.629,3.629,3.6262,3.6142,3.6112,3.6213,3.6213,3.6212,3.6211,3.6211,3.6342,3.6309,3.6362,3.6376,3.6393,3.6423,3.64,3.6428,3.6436,3.6455,3.6423,3.6337,3.6322,3.6311,3.6286,3.6426,3.6426,3.6427,3.6427,3.6421,3.6412,3.6462,3.6486,3.6508,3.6492,3.6552,3.655,3.6542,3.6546,3.6523,3.6489,3.6479,3.6469,3.6455,3.6432,3.6606,3.6606,3.6606,3.6504,3.6496,3.6552,3.6545,3.6557,3.6568,3.6624,3.6653,3.6637,3.6613,3.6549,3.6541,3.6485,3.6468,3.6442,3.6421,3.6377,0,0]}]]